timestamp,wind_dir_avg,wind_spd_max_dir,wind_spd_avg,wind_spd_gust,battery_voltage,lat,long
2022-11-23 00:04:01+00:00,289.0,289.0,9.48,11.0,12.33,47.59359,-54.27349
2022-11-23 00:14:00+00:00,283.0,281.0,8.72,10.64,12.25,47.59359,-54.27349
2022-11-23 00:24:00+00:00,290.0,291.0,8.6,10.25,12.25,47.59359,-54.27349
2022-11-23 00:34:00+00:00,273.0,273.0,9.06,10.71,12.25,47.59359,-54.27349
2022-11-23 00:44:00+00:00,275.0,286.0,8.94,10.59,12.25,47.59359,-54.27349
2022-11-23 00:54:00+00:00,284.0,278.0,9.52,10.93,12.25,47.59359,-54.27349
2022-11-23 01:04:00+00:00,282.0,279.0,8.83,11.44,12.25,47.59359,-54.27349
2022-11-23 01:14:01+00:00,279.0,271.0,9.53,11.21,12.25,47.59359,-54.27349
2022-11-23 01:24:01+00:00,266.0,260.0,9.27,11.52,12.25,47.59359,-54.27349
2022-11-23 01:34:01+00:00,270.0,275.0,9.46,10.93,12.25,47.59359,-54.27349
2022-11-23 01:44:01+00:00,267.0,270.0,9.22,10.67,12.25,47.59359,-54.27349
2022-11-23 01:54:01+00:00,272.0,266.0,8.66,10.4,12.25,47.59359,-54.27349
2022-11-23 02:04:01+00:00,271.0,274.0,8.94,11.69,12.25,47.59359,-54.27349
2022-11-23 02:14:00+00:00,272.0,266.0,10.2,11.33,12.25,47.59359,-54.27349
2022-11-23 02:24:00+00:00,280.0,285.0,9.92,11.48,12.25,47.59359,-54.27349
2022-11-23 02:34:00+00:00,274.0,279.0,9.88,12.56,12.25,47.59359,-54.27349
2022-11-23 02:44:00+00:00,278.0,278.0,8.12,9.37,12.25,47.59359,-54.27349
2022-11-23 02:54:00+00:00,272.0,262.0,7.88,9.33,12.25,47.59359,-54.27349
2022-11-23 03:04:00+00:00,267.0,265.0,8.41,10.04,12.25,47.59359,-54.27349
2022-11-23 03:14:00+00:00,275.0,271.0,8.46,10.18,12.17,47.59359,-54.27349
2022-11-23 03:24:00+00:00,269.0,267.0,8.18,10.41,12.17,47.59359,-54.27349
2022-11-23 03:34:00+00:00,269.0,273.0,6.73,10.08,12.17,47.59359,-54.27349
2022-11-23 03:44:00+00:00,275.0,272.0,6.45,9.64,12.17,47.59359,-54.27349
2022-11-23 03:54:00+00:00,273.0,268.0,7.61,9.24,12.17,47.59359,-54.27349
2022-11-23 04:04:00+00:00,271.0,269.0,8.58,10.33,12.17,47.59359,-54.27349
2022-11-23 04:14:01+00:00,273.0,280.0,8.13,9.96,12.17,47.59359,-54.27349
2022-11-23 04:24:01+00:00,282.0,277.0,9.0,10.48,12.17,47.59359,-54.27349
2022-11-23 04:34:01+00:00,270.0,273.0,8.97,10.85,12.17,47.59359,-54.27349
2022-11-23 04:44:01+00:00,272.0,275.0,10.52,11.8,12.17,47.59359,-54.27349
2022-11-23 04:54:01+00:00,277.0,272.0,11.47,12.42,12.17,47.59359,-54.27349
2022-11-23 05:04:01+00:00,270.0,264.0,10.87,12.79,12.17,47.59359,-54.27349
2022-11-23 05:14:00+00:00,281.0,279.0,10.08,11.45,12.09,47.59359,-54.27349
2022-11-23 05:24:00+00:00,288.0,290.0,11.41,13.48,12.09,47.59359,-54.27349
2022-11-23 05:34:00+00:00,277.0,271.0,10.65,11.64,12.09,47.59359,-54.27349
2022-11-23 05:44:00+00:00,287.0,282.0,9.35,10.66,12.09,47.59359,-54.27349
2022-11-23 05:54:00+00:00,278.0,283.0,10.7,12.41,12.09,47.59359,-54.27349
2022-11-23 06:04:00+00:00,284.0,282.0,8.49,10.76,12.09,47.59359,-54.27349
2022-11-23 06:14:00+00:00,277.0,274.0,9.63,10.86,12.09,47.59359,-54.27349
2022-11-23 06:24:00+00:00,282.0,284.0,8.75,10.32,12.09,47.59359,-54.27349
2022-11-23 06:34:00+00:00,286.0,296.0,9.17,10.53,12.09,47.59359,-54.27349
2022-11-23 06:44:00+00:00,279.0,277.0,8.73,10.11,12.09,47.59359,-54.27349
2022-11-23 06:54:00+00:00,282.0,281.0,6.99,8.3,12.09,47.59359,-54.27349
2022-11-23 07:04:00+00:00,297.0,303.0,7.02,8.32,12.09,47.59359,-54.27349
2022-11-23 07:14:01+00:00,295.0,307.0,6.25,7.36,12.17,47.59359,-54.27349
2022-11-23 07:24:01+00:00,284.0,284.0,6.83,7.97,12.17,47.59359,-54.27349
2022-11-23 07:34:01+00:00,281.0,279.0,5.84,6.87,12.17,47.59359,-54.27349
2022-11-23 07:44:01+00:00,273.0,274.0,5.79,6.96,12.17,47.59359,-54.27349
2022-11-23 07:54:01+00:00,270.0,271.0,6.25,7.28,12.17,47.59359,-54.27349
2022-11-23 08:04:01+00:00,270.0,259.0,4.43,5.16,12.17,47.59359,-54.27349
2022-11-23 08:14:00+00:00,268.0,262.0,4.08,5.32,12.09,47.59359,-54.27349
2022-11-23 08:24:00+00:00,272.0,278.0,4.2,4.78,12.09,47.59359,-54.27349
2022-11-23 08:34:00+00:00,254.0,247.0,4.19,4.94,12.09,47.59359,-54.27349
2022-11-23 08:44:00+00:00,271.0,274.0,5.16,5.58,12.09,47.59359,-54.27349
2022-11-23 08:54:00+00:00,259.0,262.0,4.49,5.56,12.09,47.59359,-54.27349
2022-11-23 09:04:00+00:00,242.0,253.0,4.94,9.83,12.09,47.59359,-54.27349
2022-11-23 09:14:01+00:00,231.0,229.0,5.26,6.58,12.09,47.59359,-54.27349
2022-11-23 09:24:01+00:00,246.0,250.0,4.82,5.74,12.09,47.59359,-54.27349
2022-11-23 09:34:01+00:00,265.0,252.0,3.06,3.44,12.09,47.59359,-54.27349
2022-11-23 09:44:01+00:00,261.0,257.0,3.4,4.18,12.09,47.59359,-54.27349
2022-11-23 09:54:01+00:00,245.0,242.0,4.1,4.98,12.09,47.59359,-54.27349
2022-11-23 10:04:01+00:00,269.0,269.0,3.11,3.71,12.09,47.59359,-54.27349
2022-11-23 10:14:00+00:00,269.0,264.0,2.13,2.77,12.09,47.59359,-54.27349
2022-11-23 10:24:00+00:00,237.0,230.0,4.58,5.5,12.09,47.59359,-54.27349
2022-11-23 10:34:00+00:00,231.0,231.0,4.32,4.83,12.09,47.59359,-54.27349
2022-11-23 10:44:00+00:00,225.0,228.0,3.59,4.82,12.09,47.59359,-54.27349
2022-11-23 10:54:00+00:00,225.0,223.0,4.31,5.15,12.09,47.59359,-54.27349
2022-11-23 11:04:00+00:00,230.0,232.0,4.31,4.85,12.09,47.59359,-54.27349
2022-11-23 11:14:00+00:00,206.0,214.0,4.55,6.3,12.09,47.59359,-54.27349
2022-11-23 11:24:00+00:00,219.0,214.0,6.18,7.03,12.09,47.59359,-54.27349
2022-11-23 11:34:00+00:00,217.0,219.0,5.57,6.65,12.09,47.59359,-54.27349
2022-11-23 11:44:00+00:00,225.0,235.0,9.22,10.73,12.09,47.59359,-54.27349
2022-11-23 11:54:00+00:00,233.0,241.0,8.56,11.05,12.09,47.59359,-54.27349
2022-11-23 12:04:00+00:00,231.0,233.0,9.75,11.05,12.09,47.59359,-54.27349
2022-11-23 12:14:00+00:00,224.0,224.0,9.46,10.86,12.09,47.59359,-54.27349
2022-11-23 12:24:00+00:00,222.0,217.0,10.39,12.23,12.09,47.59359,-54.27349
2022-11-23 12:34:00+00:00,225.0,224.0,10.7,12.01,12.09,47.59359,-54.27349
2022-11-23 12:44:00+00:00,226.0,231.0,9.45,11.05,12.09,47.59359,-54.27349
2022-11-23 12:54:00+00:00,225.0,220.0,10.47,12.26,12.09,47.59359,-54.27349
2022-11-23 13:04:00+00:00,224.0,220.0,8.78,10.36,12.09,47.59359,-54.27349
2022-11-23 13:14:01+00:00,224.0,217.0,10.23,11.95,12.41,47.59359,-54.27349
2022-11-23 13:24:01+00:00,239.0,232.0,11.41,14.86,12.41,47.59359,-54.27349
2022-11-23 13:34:01+00:00,240.0,248.0,11.24,13.06,12.41,47.59359,-54.27349
2022-11-23 13:44:01+00:00,238.0,238.0,10.47,11.64,12.41,47.59359,-54.27349
2022-11-23 13:54:01+00:00,227.0,228.0,11.26,13.28,12.41,47.59359,-54.27349
2022-11-23 14:04:01+00:00,236.0,232.0,10.91,12.29,12.41,47.59359,-54.27349
2022-11-23 14:14:00+00:00,223.0,221.0,10.26,11.74,12.81,47.59359,-54.27349
2022-11-23 14:24:00+00:00,224.0,216.0,9.82,11.08,12.81,47.59359,-54.27349
2022-11-23 14:34:00+00:00,225.0,227.0,9.68,10.97,12.81,47.59359,-54.27349
2022-11-23 14:44:00+00:00,229.0,227.0,9.06,10.59,12.81,47.59359,-54.27349
2022-11-23 14:54:00+00:00,223.0,221.0,9.09,11.18,12.81,47.59359,-54.27349
2022-11-23 15:04:00+00:00,226.0,229.0,8.87,10.26,12.81,47.59359,-54.27349
2022-11-23 15:14:00+00:00,228.0,222.0,8.14,9.23,13.37,47.59359,-54.27349
2022-11-23 15:24:00+00:00,215.0,220.0,9.02,10.46,13.37,47.59359,-54.27349
2022-11-23 15:34:00+00:00,215.0,224.0,9.28,10.45,13.37,47.59359,-54.27349
2022-11-23 15:44:00+00:00,213.0,212.0,11.62,14.3,13.37,47.59359,-54.27349
2022-11-23 15:54:00+00:00,216.0,215.0,10.76,12.41,13.37,47.59359,-54.27349
2022-11-23 16:04:00+00:00,221.0,216.0,11.67,13.3,13.37,47.59359,-54.27349
2022-11-23 16:14:01+00:00,217.0,213.0,11.08,12.9,12.97,47.59359,-54.27349
2022-11-23 16:24:01+00:00,216.0,218.0,10.79,12.51,12.97,47.59359,-54.27349
2022-11-23 16:34:01+00:00,214.0,212.0,12.51,14.05,12.97,47.59359,-54.27349
2022-11-23 16:44:01+00:00,210.0,210.0,13.5,15.12,12.97,47.59359,-54.27349
2022-11-23 16:54:01+00:00,204.0,207.0,13.8,15.55,12.97,47.59359,-54.27349
2022-11-23 17:04:01+00:00,210.0,209.0,14.56,16.21,12.97,47.59359,-54.27349
2022-11-23 17:14:00+00:00,217.0,213.0,12.04,13.23,12.81,47.59359,-54.27349
2022-11-23 17:24:00+00:00,214.0,213.0,12.12,14.06,12.81,47.59359,-54.27349
2022-11-23 17:34:00+00:00,210.0,205.0,12.15,14.05,12.81,47.59359,-54.27349
2022-11-23 17:44:00+00:00,203.0,201.0,14.25,15.61,12.81,47.59359,-54.27349
2022-11-23 17:54:00+00:00,204.0,202.0,12.73,14.3,12.81,47.59359,-54.27349
2022-11-23 18:04:00+00:00,195.0,201.0,13.84,16.35,12.81,47.59359,-54.27349
2022-11-23 18:14:01+00:00,199.0,201.0,13.57,15.62,12.73,47.59359,-54.27349
2022-11-23 18:24:01+00:00,203.0,200.0,11.95,13.87,12.73,47.59359,-54.27349
2022-11-23 18:34:01+00:00,205.0,203.0,16.93,18.44,12.73,47.59359,-54.27349
2022-11-23 18:44:01+00:00,200.0,197.0,14.41,16.08,12.73,47.59359,-54.27349
2022-11-23 18:54:01+00:00,202.0,209.0,14.67,17.12,12.73,47.59359,-54.27349
2022-11-23 19:04:01+00:00,204.0,208.0,15.05,17.9,12.73,47.59359,-54.27349
2022-11-23 19:14:00+00:00,208.0,206.0,13.88,15.8,12.49,47.59359,-54.27349
2022-11-23 19:24:00+00:00,208.0,210.0,13.85,15.59,12.49,47.59359,-54.27349
2022-11-23 19:34:00+00:00,224.0,223.0,11.03,13.68,12.49,47.59359,-54.27349
2022-11-23 19:44:00+00:00,229.0,226.0,11.49,13.22,12.49,47.59359,-54.27349
2022-11-23 19:54:00+00:00,240.0,241.0,10.73,12.57,12.49,47.59359,-54.27349
2022-11-23 20:04:00+00:00,244.0,244.0,10.16,12.23,12.49,47.59359,-54.27349
2022-11-23 20:14:01+00:00,256.0,258.0,8.38,9.82,12.41,47.59359,-54.27349
2022-11-23 20:24:01+00:00,248.0,251.0,8.51,9.71,12.41,47.59359,-54.27349
2022-11-23 20:34:01+00:00,248.0,243.0,8.38,9.48,12.41,47.59359,-54.27349
2022-11-23 20:44:01+00:00,249.0,248.0,6.91,7.73,12.41,47.59359,-54.27349
2022-11-23 20:54:01+00:00,255.0,255.0,8.35,9.24,12.41,47.59359,-54.27349
2022-11-23 21:04:01+00:00,263.0,266.0,8.26,9.3,12.41,47.59359,-54.27349
2022-11-23 21:14:00+00:00,274.0,274.0,7.65,9.53,12.33,47.59359,-54.27349
2022-11-23 21:24:00+00:00,276.0,280.0,8.05,10.26,12.33,47.59359,-54.27349
2022-11-23 21:34:00+00:00,292.0,287.0,8.43,10.69,12.33,47.59359,-54.27349
2022-11-23 21:44:00+00:00,266.0,269.0,6.79,9.84,12.33,47.59359,-54.27349
2022-11-23 21:54:00+00:00,285.0,285.0,9.44,11.03,12.33,47.59359,-54.27349
2022-11-23 22:04:00+00:00,282.0,286.0,8.78,10.77,12.33,47.59359,-54.27349
2022-11-23 22:14:00+00:00,284.0,286.0,9.58,10.89,12.33,47.59359,-54.27349
2022-11-23 22:24:00+00:00,279.0,283.0,9.66,10.58,12.33,47.59359,-54.27349
2022-11-23 22:34:00+00:00,277.0,277.0,8.47,10.21,12.33,47.59359,-54.27349
2022-11-23 22:44:00+00:00,269.0,274.0,9.34,10.22,12.33,47.59359,-54.27349
2022-11-23 22:54:00+00:00,279.0,282.0,9.76,10.66,12.33,47.59359,-54.27349
2022-11-23 23:04:00+00:00,262.0,266.0,8.6,10.27,12.33,47.59359,-54.27349
2022-11-23 23:14:00+00:00,271.0,279.0,9.33,11.02,12.17,47.59359,-54.27349
2022-11-23 23:24:00+00:00,272.0,278.0,8.88,10.39,12.17,47.59359,-54.27349
2022-11-23 23:34:00+00:00,277.0,276.0,9.76,10.8,12.17,47.59359,-54.27349
2022-11-23 23:44:00+00:00,292.0,289.0,9.53,11.01,12.17,47.59359,-54.27349
2022-11-23 23:54:00+00:00,291.0,289.0,9.3,11.07,12.17,47.59359,-54.27349
